User: anonymous   Login
Location: Newark
(36.0797°N, 3.9744°E)
Time: 09:05:17
(UTC+00:00)
Language:

A-11 Canister half - Orbit

View from above orbital plane
View from above orbital plane
View from above satellite
View from above satellite

Ground track
Ground track

The orbit data is extracted from the following two-line orbital elements,

1    53U 60009E   19342.89029355 +.00000021 +00000-0 +10376-2 0  9995
2    53 047.2750 129.7299 0098008 234.1163 125.0495 12.17233882645232
Epoch (UTC): 08 December 2019 21:22:01
Eccentricity: 0.0098008
inclination: 47.2750°
perigee height: 1526 km
apogee height: 1683 km
right ascension of ascending node: 129.7299°
argument of perigee: 234.1163°
revolutions per day: 12.17233882
mean anomaly at epoch: 125.0495°
orbit number at epoch: 64523

The dashed part of the orbit path shows where the satellite is in the earth's shadow,  

DLR